Location: Peterborough
(44.3091°N, 78.3197°W)
Time: 23:52:44
(UTC-04:00)

Vanguard 1 Rocket - Visible Passes

Search period start: 24 May 2024 00:00
Search period end: 03 June 2024 00:00
Orbit: 650 x 4220 km, 34.3° (Epoch: 22 May)

Date Brightness Start Highest point End Pass type
(mag) Time Alt. Az. Time Alt. Az. Time Alt. Az.
26 May 12.0 05:12:15 10° SE 05:18:36 11° SE 05:24:37 10° ESE visible
31 May 11.8 03:57:27 10° SE 04:05:17 12° SE 04:13:04 10° ESE visible
01 Jun 11.5 05:00:24 10° S 05:18:58 27° SE 05:36:27 10° E visible
02 Jun 11.6 03:52:13 10° SSE 04:05:10 17° SE 04:18:19 10° E visible
